Home   Weather   Gliwice   Past weeks

Flag for Poland Past Weather in Gliwice, Poland — Yesterday and Last 2 Weeks

Now
30 °F

Ice fog.


Feels Like: 23 °F
Forecast: 18 / 30 °F
Wind: 8 mph from Southwest

Location: Katowice Airport

Current Time: Jan 21, 2017 at 3:38:20 am

Latest Report: Jan 21, 2017 at 3:00 am


Visibility: 1 mi

Pressure: 30.45 "Hg

Humidity: 93%

Dew Point: 28 °F

Location of GliwiceLocation

Past Weather in Gliwice — Graph

°F

Gliwice Temperature Yesterday

Maximum temperature yesterday: 30 °F (at 4:00 pm)
Minimum temperature yesterday: 14 °F (at 12:00 am)
Average temperature yesterday: 24 °F

High & Low Weather Summary for the Past Weeks

 TemperatureHumidityPressure
High39 °F (Jan 13, 11:30 am)100% (Jan 15, 5:30 am)30.69 "Hg (Jan 15, 5:30 am)
Low-20 °F (Jan 7, 7:00 am)46% (Jan 9, 2:00 pm)29.30 "Hg (Jan 13, 2:00 pm)
Average18 °F83%30.16 "Hg
* Reported Jan 6 2:00 am — Jan 21 2:30 am, Gliwice, Weather by CustomWeather, © 2017

Note: Actual official high and low records may vary slightly from our data, if they occured in-between our weather recording intervals... More about our weather records

Advertising

Gliwice Weather History for the Previous 24 Hours

Scroll right to see more
 ConditionsComfort  
Time TempWeatherWind HumidityBarometerVisibility
2:30 am
Sat, Jan 21
30 °FLight freezing rain. Ice fog.9 mph93%30.45 "Hg1 mi
2:00 am30 °FLight freezing rain. Ice fog.8 mph93%30.45 "Hg1 mi
1:30 am28 °FLight freezing rain. Ice fog.10 mph100%30.48 "Hg1 mi
1:00 am28 °FLight freezing rain. Ice fog.8 mph100%30.48 "Hg1 mi
12:30 am28 °FLight freezing rain. Ice fog.10 mph100%30.48 "Hg1 mi
12:00 am28 °FLight freezing rain. Ice fog.8 mph100%30.48 "Hg1 mi
11:30 pm
Fri, Jan 20
28 °FLight freezing rain. Ice fog.8 mph100%30.48 "Hg1 mi
11:00 pm28 °FLight freezing rain. Ice fog.8 mph100%30.48 "Hg1 mi
10:30 pm28 °FLight freezing rain. Ice fog.8 mph93%30.48 "Hg1 mi
10:00 pm28 °FLight freezing rain. Ice fog.9 mph93%30.48 "Hg1 mi
9:30 pm28 °FLow clouds.12 mph93%30.48 "Hg4 mi
9:00 pm28 °FMostly cloudy.8 mph93%30.48 "Hg4 mi
8:30 pm28 °FIce fog.8 mph100%30.48 "Hg2 mi
8:00 pm30 °FLight freezing rain. Ice fog.9 mph93%30.48 "Hg1 mi
7:30 pm30 °FLight freezing rain. Ice fog.9 mph93%30.48 "Hg1 mi
7:00 pm30 °FLight freezing rain. Ice fog.7 mph93%30.48 "Hg3 mi
6:30 pm30 °FMostly cloudy.8 mph86%30.48 "Hg4 mi
6:00 pm30 °FOvercast.6 mph86%30.48 "Hg4 mi
5:30 pm30 °FOvercast.8 mph80%30.48 "Hg4 mi
5:00 pm30 °FMostly cloudy.8 mph80%30.48 "Hg4 mi
4:30 pm30 °FMostly cloudy.8 mph80%30.51 "Hg4 mi
4:00 pm30 °FLow clouds.7 mph80%30.51 "Hg4 mi
3:30 pm28 °FMore clouds than sun.10 mph86%30.51 "Hg6 mi
3:00 pm28 °FMostly cloudy.12 mph86%30.51 "Hg4 mi
2:30 pm28 °FIce fog.9 mph86%30.51 "Hg3 mi
2:00 pm27 °FIce fog.8 mph100%30.51 "Hg2 mi
1:30 pm27 °FIce fog.9 mph93%30.51 "Hg1 mi
1:00 pm27 °FIce fog.9 mph93%30.51 "Hg1 mi
12:30 pm27 °FIce fog.9 mph86%30.54 "Hg1 mi
12:00 pm27 °FIce fog.8 mph80%30.54 "Hg1 mi
11:30 am27 °FIce fog.6 mph74%30.54 "Hg1 mi
11:00 am25 °FIce fog.9 mph74%30.54 "Hg1 mi
10:30 am25 °FIce fog.7 mph74%30.54 "Hg1 mi
10:00 am25 °FIce fog.5 mph74%30.54 "Hg1 mi
9:30 am23 °FIce fog.7 mph80%30.54 "Hg1 mi
9:00 am23 °FIce fog.7 mph80%30.54 "Hg1 mi
8:30 am21 °FIce fog.6 mph86%30.54 "Hg1 mi
8:00 am21 °FIce fog.7 mph86%30.54 "Hg1 mi
7:30 am21 °FIce fog.6 mph86%30.54 "Hg1 mi
7:00 am21 °FIce fog.5 mph86%30.54 "Hg1 mi
6:30 am21 °FIce fog.6 mph86%30.54 "Hg1 mi
6:00 am19 °FIce fog.6 mph93%30.54 "Hg1 mi
5:30 am19 °FIce fog.6 mph93%30.54 "Hg1 mi
5:00 am19 °FIce fog.5 mph86%30.54 "Hg1 mi
4:30 am19 °FIce fog.3 mph86%30.57 "Hg1 mi
4:00 am18 °FIce fog.5 mph93%30.54 "Hg1 mi
3:30 am18 °FIce fog.6 mph93%30.57 "Hg1 mi
3:00 am18 °FIce fog.6 mph93%30.57 "Hg1 mi
Weather by CustomWeather, © 2017

See weather overviewHow to use our weather pages